Weather History for PAOM - March, 2013

Change the Weather History Date:

Sunday, March 3, 2013

  Actual Average Record
Temperature  
Mean Temperature 15 °F -  
Max Temperature 21 °F 17 °F 36 °F (1917)
Min Temperature 9 °F - -33 °F (1956)
Degree Days  
Heating Degree Days 50 56  
Month to date heating degree days 182 168  
Since 1 July heating degree days 9723 9450  
Cooling Degree Days 0    
Month to date cooling degree days 0  
Year to date cooling degree days 0  
Moisture  
Dew Point 9 °F    
Average Humidity 0    
Maximum Humidity 0    
Minimum Humidity 0    
Precipitation  
Precipitation 0.00 in 0.02 in 0.55 in (1935)
Month to date precipitation 0.00 0.07  
Year to date precipitation 1.52 1.94  
Snow  
Snow 0.00 in 0.40 in 6.50 in (1945)
Month to date snowfall 0.0 1.1  
Since 1 July snowfall 41.3 57.8  
Snow Depth 23.00 in    
Sea Level Pressure  
Sea Level Pressure 30.11 in    
Wind  
Wind Speed 11 mph (East)    
Max Wind Speed 20 mph    
Max Gust Speed 24 mph    
Visibility 10 miles    
Events      
T = Trace of Precipitation, MM = Missing Value Source: NWS Daily Summary

Daily Weather History Graph

Daily Weather History Graph

Search for Another Location

Airport or City:

Trip Planner

Search our weather history database for the weather conditions in past years. The results will help you decide how hot, cold, wet, or windy it might be!

Date:

Astronomy

Mar. 03, 2013 Rise Set
Actual Time 9:01 AM AKST 7:27 PM AKST
Civil Twilight 8:12 AM AKST 8:15 PM AKST
Nautical Twilight 7:17 AM AKST 9:11 PM AKST
Astronomical Twilight 6:18 AM AKST 10:10 PM AKST
Moon 3:48 AM AKST (3/3) 9:53 AM AKST (3/3)
Length of Visible Light 12h 02m
Length of Day
10h 25m
Waning Gibbous, 62% of the Moon is Illuminated
Mar 3
Waning Gibbous
Mar 4
Last Quarter
Mar 11
New
Mar 19
First Quarter
Mar 27
Full

Hourly Weather History & Observations

Time (AKST) Temp. Windchill Dew Point Humidity Pressure Visibility Wind Dir Wind Speed Gust Speed Precip Events Conditions
12:53 AM 18.0 °F 2.2 °F 6.1 °F 60% 30.01 in 10.0 mi East 18.4 mph - N/A   Scattered Clouds
1:53 AM 17.1 °F 5.0 °F 6.1 °F 62% 30.02 in 10.0 mi East 10.4 mph - N/A   Clear
2:53 AM 17.1 °F 3.6 °F 7.0 °F 65% 30.02 in 10.0 mi East 12.7 mph - N/A   Scattered Clouds
3:53 AM 18.0 °F 3.6 °F 8.1 °F 65% 30.03 in 10.0 mi East 15.0 mph - N/A   Overcast
4:53 AM 15.1 °F 1.8 °F 7.0 °F 70% 30.04 in 10.0 mi East 11.5 mph - N/A   Scattered Clouds
5:53 AM 17.1 °F 5.0 °F 8.1 °F 68% 30.05 in 10.0 mi East 10.4 mph - N/A   Overcast
6:53 AM 14.0 °F 1.2 °F 6.1 °F 71% 30.08 in 10.0 mi ESE 10.4 mph - N/A   Partly Cloudy
7:53 AM 12.0 °F -0.4 °F 6.1 °F 77% 30.07 in 10.0 mi East 9.2 mph - N/A   Clear
8:53 AM 10.9 °F -2.6 °F 5.0 °F 77% 30.09 in 10.0 mi East 10.4 mph - N/A   Scattered Clouds
9:53 AM 12.0 °F -2.0 °F 6.1 °F 77% 30.10 in 10.0 mi East 11.5 mph - N/A   Scattered Clouds
10:53 AM 15.1 °F 1.8 °F 8.1 °F 74% 30.11 in 10.0 mi East 11.5 mph - N/A   Mostly Cloudy
11:53 AM 17.1 °F 5.0 °F 9.0 °F 71% 30.12 in 10.0 mi ENE 10.4 mph - N/A   Clear
12:53 PM 18.0 °F 6.1 °F 10.9 °F 74% 30.13 in 10.0 mi East 10.4 mph - N/A   Mostly Cloudy
1:53 PM 19.0 °F 7.5 °F 10.9 °F 71% 30.14 in 10.0 mi East 10.4 mph - N/A   Mostly Cloudy
2:53 PM 19.0 °F 8.2 °F 12.0 °F 74% 30.15 in 10.0 mi East 9.2 mph - N/A   Mostly Cloudy
3:53 PM 19.0 °F 9.0 °F 12.9 °F 77% 30.15 in 10.0 mi East 8.1 mph - N/A   Mostly Cloudy
4:53 PM 19.0 °F 8.2 °F 12.9 °F 77% 30.16 in 10.0 mi East 9.2 mph - N/A   Overcast
5:53 PM 19.0 °F 7.5 °F 12.9 °F 77% 30.15 in 10.0 mi East 10.4 mph - N/A   Overcast
6:53 PM 18.0 °F 6.1 °F 12.9 °F 81% 30.16 in 10.0 mi ENE 10.4 mph - N/A   Overcast
7:53 PM 18.0 °F 4.2 °F 12.0 °F 78% 30.17 in 10.0 mi ENE 13.8 mph - N/A   Overcast
8:53 PM 18.0 °F 4.8 °F 12.0 °F 78% 30.17 in 10.0 mi ENE 12.7 mph - N/A   Overcast
9:53 PM 19.0 °F 6.1 °F 12.0 °F 74% 30.15 in 10.0 mi ENE 12.7 mph - N/A   Mostly Cloudy
10:53 PM 19.9 °F 6.7 °F 12.0 °F 71% 30.15 in 10.0 mi ENE 13.8 mph - N/A   Mostly Cloudy
11:53 PM 19.9 °F 8.6 °F 10.9 °F 68% 30.16 in 10.0 mi East 10.4 mph - N/A   Mostly Cloudy